Home   Weather   Mattersburg   Past weeks

Flag for Austria Past Weather in Mattersburg, Burgenland, Austria — Yesterday and Last 2 Weeks

Now
46 °F

Cool.


Feels Like: 46 °F
Forecast: 42 / 59 °F
Wind: No wind

Location: Eisenstadt

Current Time: Apr 30, 2017 at 9:25:21 am

Latest Report: Apr 30, 2017 at 8:00 am


Visibility: N/A

Pressure: 30.11 "Hg

Humidity: 66%

Dew Point: 35 °F

Location of MattersburgLocation

Past Weather in Mattersburg — Graph

°F

Mattersburg Temperature Yesterday

Maximum temperature yesterday: 57 °F (at 3:00 pm)
Minimum temperature yesterday: 39 °F (at 6:00 am)
Average temperature yesterday: 47 °F

High & Low Weather Summary for the Past Weeks

 TemperatureHumidityPressure
High75 °F (Apr 25, 3:00 pm)95% (Apr 19, 9:00 pm)30.48 "Hg (Apr 19, 9:00 pm)
Low31 °F (Apr 21, 6:00 am)30% (Apr 25, 2:00 pm)29.65 "Hg (Apr 25, 7:00 pm)
Average47 °F68%30.02 "Hg
* Reported Apr 15 8:00 am — Apr 30 8:00 am, Mattersburg, Weather by CustomWeather, © 2017

Note: Actual official high and low records may vary slightly from our data, if they occured in-between our weather recording intervals... More about our weather records

Advertising

Mattersburg Weather History for the Previous 24 Hours

Scroll right to see more
 ConditionsComfort  
Time TempWeatherWind HumidityBarometerVisibility
8:00 am
Sun, Apr 30
46 °FCool.No wind66%30.11 "HgN/A
7:00 am40 °FChilly.2 mph83%30.12 "HgN/A
6:00 am38 °FSunny.1 mph86%30.11 "Hg12 mi
5:00 am39 °FClear.2 mph82%30.10 "Hg9 mi
4:00 am39 °FPassing clouds.5 mph81%30.10 "Hg9 mi
3:00 am41 °FQuite cool.2 mph77%30.09 "HgN/A
2:00 am44 °FOvercast.3 mph71%30.09 "Hg6 mi
1:00 am46 °FCool.6 mph68%30.09 "HgN/A
12:00 am44 °FQuite cool.6 mph75%30.09 "HgN/A
11:00 pm
Sat, Apr 29
42 °FClear.3 mph82%30.09 "Hg6 mi
10:00 pm43 °FQuite cool.1 mph81%30.09 "HgN/A
9:00 pm46 °FCool.2 mph77%30.08 "HgN/A
8:00 pm48 °FPartly sunny.3 mph71%30.06 "Hg12 mi
7:00 pm54 °FPartly sunny.2 mph49%30.04 "Hg12 mi
6:00 pm54 °FCool.5 mph48%30.04 "HgN/A
5:00 pm56 °FOvercast.2 mph42%30.03 "Hg9 mi
4:00 pm55 °FCool.3 mph46%30.04 "HgN/A
3:00 pm57 °FRefreshingly cool.3 mph43%30.03 "HgN/A
2:00 pm56 °FRefreshingly cool.3 mph41%30.03 "HgN/A
1:00 pm53 °FCool.5 mph45%30.05 "HgN/A
12:00 pm53 °FCool.3 mph50%30.07 "HgN/A
11:00 am52 °FSunny.5 mph55%30.08 "Hg7 mi
10:00 am50 °FCool.6 mph60%30.08 "HgN/A
9:00 am47 °FCool.5 mph66%30.09 "HgN/A
Weather by CustomWeather, © 2017

See weather overviewHow to use our weather pages